This demonstration page uses our WeatherBlox Daily Observations layout. Learn more.

Left ArrowRight Arrow

Hourly Observations for August 10, 2022

Temp ( °F °C ) Dew Point ( °F °C ) Humidity (%) Winds ( mph kmh ) Pressure ( in mb ) Visibility ( mi km ) Precip ( " mm )
12:53 am 00:53 Clear 83 28.3 57 13.9 41 41 ESE 13 20 29.94 1014 10 16 0.00 0.00
1:53 am 01:53 Clear 82 27.8 57 13.9 43 43 ESE 10 17 29.93 1014 10 16 0.00 0.00
2:53 am 02:53 Clear 80 26.7 57 13.9 45 45 ESE 7 11 29.94 1014 10 16 0.00 0.00
3:53 am 03:53 Clear 79 26.1 57 13.9 47 47 ESE 8 13 29.94 1014 10 16 0.00 0.00
4:53 am 04:53 Clear 79 26.1 57 13.9 47 47 ESE 9 15 29.94 1014 10 16 0.00 0.00
5:53 am 05:53 Clear 79 26.1 57 13.9 47 47 SE 10 17 29.94 1014 10 16 0.00 0.00
6:53 am 06:53 Clear 78 25.6 56 13.3 47 47 SE 7 11 29.96 1015 10 16 0.00 0.00
7:53 am 07:53 Sunny 78 25.6 56 13.3 47 47 ESE 8 13 29.99 1016 10 16 0.00 0.00
8:53 am 08:53 Sunny 80 26.7 57 13.9 45 45 SE 9 15 30.01 1016 10 16 0.00 0.00
9:53 am 09:53 undefined 83 28.3 58 14.4 43 43 SE 8 13 30.02 1017 10 16 0.00 0.00
10:53 am 10:53 Sunny 87 30.6 58 14.4 37 37 S 7 11 30.03 1017 10 16 0.00 0.00
11:53 am 11:53 Sunny 89 31.7 58 14.4 35 35 VRB 5 7 30.04 1017 10 16 0.00 0.00
12:53 pm 12:53 undefined 92 33.3 58 14.4 32 32 ENE 12 19 30.03 1017 N/A 0.00 0.00
1:48 pm 13:48 Cloudy with Thunderstorms 88 31 61 16 40 40 undefined N/A 29.96 1015 N/A 0.00 0.00
1:53 pm 13:53 Partly Cloudy with Thunderstorms 80 26.7 61 16.1 52 52 undefined N/A 30.05 1018 N/A 0.00 0.00
2:27 pm 14:27 Cloudy with Nearby Thunderstorms 80 26.7 69 20.6 69 69 NNW 7 11 29.98 1015 N/A 0.00 0.00
2:36 pm 14:36 Mostly Cloudy 82 27.8 70 21.1 67 67 N 7 11 29.96 1015 N/A 0.00 0.00
2:53 pm 14:53 Mostly Sunny 88 31.1 65 18.3 47 47 NNE 6 9 30.00 1016 10 16 0.00 0.00
3:53 pm 15:53 Sunny 90 32.2 65 18.3 44 44 E 15 24 29.98 1015 10 16 0.00 0.00
4:53 pm 16:53 Sunny 91 32.8 61 16.1 37 37 ENE 12 19 29.96 1015 10 16 0.00 0.00
5:53 pm 17:53 Sunny 91 32.8 59 15 34 34 ENE 10 17 29.94 1014 10 16 0.00 0.00
6:53 pm 18:53 Sunny 91 32.8 58 14.4 33 33 E 14 22 29.92 1013 10 16 0.00 0.00
7:53 pm 19:53 Sunny 90 32.2 59 15 35 35 E 15 24 29.93 1014 10 16 0.00 0.00
8:53 pm 20:53 Clear 86 30 61 16.1 43 43 E 15 24 29.96 1015 10 16 0.00 0.00
9:53 pm 21:53 Clear 85 29.4 61 16.1 45 45 ESE 13 20 29.98 1015 10 16 0.00 0.00
10:53 pm 22:53 Clear 83 28.3 60 15.6 46 46 ESE 12 19 30.00 1016 10 16 0.00 0.00
11:53 pm 23:53 Clear 82 27.8 59 15 46 46 ESE 14 22 30.01 1016 10 16 0.00 0.00

Powered by AerisWeather